ACURITE STATION HISTORICAL DATA FROM WUNDERGROUND.COM FOR HIGH PARK VILLAGE,TORONTO,ON,CANADA
 
Daily Summary for January 24, 2020 Units:  Metric    English   Both
Next Day »
Daily Weekly Monthly Yearly Custom
  Current: High: Low: Average:
Temperature: 3.9 °C 5.9 °C 1.4 °C 2.8 °C
Dew Point: -1.1 °C -0.8 °C -3.3 °C -2.2 °C
Humidity: 70% 84% 57% 70%
Wind Speed: 0km/h 4.8km/h 0km/h 0.8km/h
Wind Gust: 3.2km/h 4.8km/h - -
WindCalm - - SSW
Pressure: 1016.5 hPa 1021.6 hPa 1016.1 hPa -
Precipitation: 0.25 mm      
Historical Graphs
 
 
Tabular Data for January 24, 2020
Time Temperature Dew Point Pressure Wind Wind Speed Wind Gust Humidity Rainfall Rate (Hourly)
00:00 2 °C -1.1 °C 1021.6 hPa Calm   1.6 km/h 80% 0 mm
00:05 1.9 °C -0.9 °C 1021.6 hPa SSE 1.6 km/h 3.2 km/h 81% 0 mm
00:10 1.9 °C -1 °C 1021.2 hPa Calm     81% 0 mm
00:15 1.9 °C -1 °C 1021.2 hPa Calm   1.6 km/h 81% 0 mm
00:20 1.9 °C -1 °C 1021.6 hPa Calm   1.6 km/h 81% 0 mm
00:25 1.9 °C -0.8 °C 1021.6 hPa SSE 1.6 km/h 1.6 km/h 82% 0 mm
00:30 1.8 °C -0.9 °C 1021.6 hPa Calm   1.6 km/h 82% 0 mm
00:35 1.7 °C -1 °C 1021.2 hPa Calm   1.6 km/h 82% 0 mm
00:40 1.7 °C -0.8 °C 1021.2 hPa Calm   1.6 km/h 83% 0 mm
00:45 1.8 °C -0.8 °C 1021.2 hPa Calm   1.6 km/h 83% 0 mm
00:50 1.8 °C -0.8 °C 1020.9 hPa Calm   1.6 km/h 83% 0 mm
00:55 1.7 °C -0.9 °C 1021.2 hPa SE 3.2 km/h 3.2 km/h 83% 0 mm
01:00 1.6 °C -1 °C 1020.9 hPa Calm     83% 0 mm
01:05 1.6 °C -0.8 °C 1020.9 hPa South 1.6 km/h 1.6 km/h 84% 0 mm
01:10 1.7 °C -0.9 °C 1020.9 hPa Calm   1.6 km/h 83% 0 mm
01:15 1.7 °C -0.8 °C 1020.9 hPa Calm   1.6 km/h 83% 0 mm
01:20 1.7 °C -0.8 °C 1020.5 hPa Calm     83% 0 mm
01:25 1.8 °C -0.9 °C 1020.5 hPa Calm   1.6 km/h 82% 0 mm
01:30 1.7 °C -1 °C 1020.9 hPa SSW 1.6 km/h 1.6 km/h 82% 0 mm
01:35 1.7 °C -1 °C 1020.5 hPa Calm   1.6 km/h 82% 0 mm
01:40 1.7 °C -1 °C 1020.9 hPa Calm   1.6 km/h 82% 0 mm
01:45 1.7 °C -1 °C 1020.9 hPa Calm     82% 0 mm
01:50 1.7 °C -1.2 °C 1020.9 hPa Calm     81% 0 mm
01:55 1.7 °C -1.2 °C 1020.9 hPa SW 1.6 km/h 1.6 km/h 81% 0 mm
02:00 1.7 °C -1.2 °C 1020.9 hPa Calm   1.6 km/h 81% 0 mm
02:05 1.7 °C -1.2 °C 1020.9 hPa Calm   3.2 km/h 81% 0 mm
02:10 1.7 °C -1.3 °C 1020.9 hPa Calm   1.6 km/h 80% 0 mm
02:15 1.7 °C -1.3 °C 1020.9 hPa Calm   1.6 km/h 80% 0 mm
02:20 1.7 °C -1.5 °C 1020.9 hPa South 1.6 km/h 1.6 km/h 79% 0 mm
02:25 1.7 °C -1.6 °C 1020.9 hPa South 1.6 km/h 1.6 km/h 79% 0 mm
02:30 1.7 °C -1.6 °C 1020.9 hPa Calm     79% 0 mm
02:35 1.7 °C -1.8 °C 1020.9 hPa Calm     78% 0 mm
02:40 1.7 °C -1.9 °C 1020.5 hPa Calm   1.6 km/h 77% 0 mm
02:45 1.6 °C -2.1 °C 1020.9 hPa Calm   1.6 km/h 77% 0 mm
02:50 1.6 °C -2.2 °C 1020.5 hPa Calm     76% 0 mm
02:55 1.5 °C -2.4 °C 1020.5 hPa SSE 1.6 km/h 1.6 km/h 75% 0 mm
03:00 1.5 °C -2.4 °C 1020.5 hPa Calm     75% 0 mm
03:05 1.4 °C -2.7 °C 1020.5 hPa Calm   1.6 km/h 74% 0 mm
03:10 1.4 °C -2.7 °C 1020.2 hPa Calm   1.6 km/h 74% 0 mm
03:15 1.4 °C -2.9 °C 1020.5 hPa Calm     73% 0 mm
03:20 1.5 °C -2.8 °C 1020.5 hPa Calm     73% 0 mm
03:27 1.4 °C -2.8 °C 1020.5 hPa Calm     73% 0 mm
03:30 1.5 °C -3 °C 1020.5 hPa Calm     72% 0 mm
03:35 1.6 °C -2.9 °C 1020.5 hPa Calm     72% 0 mm
03:40 1.5 °C -3 °C 1020.5 hPa Calm     72% 0 mm
03:45 1.6 °C -2.9 °C 1020.5 hPa Calm     72% 0 mm
03:50 1.5 °C -3 °C 1020.9 hPa Calm     72% 0 mm
03:55 1.5 °C -3 °C 1020.5 hPa Calm     72% 0 mm
04:00 1.5 °C -3 °C 1020.5 hPa Calm     72% 0 mm
04:05 1.6 °C -2.9 °C 1020.5 hPa Calm     72% 0 mm
04:10 1.6 °C -2.9 °C 1020.5 hPa SSE 1.6 km/h 1.6 km/h 72% 0 mm
04:15 1.6 °C -2.9 °C 1020.5 hPa Calm   1.6 km/h 72% 0 mm
04:20 1.6 °C -2.7 °C 1020.5 hPa Calm   1.6 km/h 73% 0 mm
04:25 1.7 °C -2.8 °C 1020.2 hPa Calm   1.6 km/h 72% 0 mm
04:30 1.6 °C -2.7 °C 1020.2 hPa Calm   1.6 km/h 73% 0 mm
04:35 1.6 °C -2.7 °C 1020.2 hPa Calm   3.2 km/h 73% 0 mm
04:40 1.6 °C -2.7 °C 1020.2 hPa SW 1.6 km/h 1.6 km/h 73% 0 mm
04:45 1.7 °C -2.7 °C 1020.2 hPa Calm   1.6 km/h 73% 0 mm
04:50 1.7 °C -2.4 °C 1020.2 hPa Calm   1.6 km/h 74% 0 mm
04:55 1.7 °C -2.4 °C 1020.2 hPa SSW 1.6 km/h 1.6 km/h 74% 0 mm
05:00 1.7 °C -2.4 °C 1020.2 hPa Calm     74% 0 mm
05:05 1.7 °C -2.4 °C 1020.2 hPa SW 1.6 km/h 1.6 km/h 74% 0 mm
05:10 1.7 °C -2.4 °C 1020.2 hPa Calm   1.6 km/h 74% 0 mm
05:15 1.8 °C -2.3 °C 1020.2 hPa Calm   1.6 km/h 74% 0 mm
05:20 1.7 °C -2.4 °C 1020.2 hPa Calm   1.6 km/h 74% 0 mm
05:25 1.7 °C -2.4 °C 1020.2 hPa Calm     74% 0 mm
05:30 1.8 °C -2.2 °C 1020.5 hPa Calm   1.6 km/h 75% 0 mm
05:35 1.8 °C -2.2 °C 1020.5 hPa SSW 1.6 km/h 1.6 km/h 75% 0 mm
05:40 1.8 °C -2.2 °C 1020.5 hPa Calm     75% 0 mm
05:45 1.8 °C -2.1 °C 1020.5 hPa Calm   1.6 km/h 75% 0 mm
05:50 1.8 °C -2.3 °C 1020.5 hPa Calm     74% 0 mm
05:55 1.9 °C -2.2 °C 1020.5 hPa Calm     74% 0 mm
06:00 1.9 °C -2.4 °C 1020.5 hPa Calm   1.6 km/h 73% 0 mm
06:05 1.9 °C -2.4 °C 1020.5 hPa Calm   1.6 km/h 73% 0 mm
06:10 1.9 °C -2.6 °C 1020.5 hPa Calm     72% 0 mm
06:15 2 °C -2.5 °C 1020.5 hPa Calm     72% 0 mm
06:20 2 °C -2.5 °C 1020.2 hPa Calm     72% 0 mm
06:25 1.9 °C -2.8 °C 1020.5 hPa Calm   1.6 km/h 71% 0 mm
06:30 1.9 °C -2.8 °C 1020.5 hPa Calm     71% 0 mm
06:36 2 °C -2.7 °C 1020.2 hPa South 1.6 km/h 1.6 km/h 71% 0 mm
06:40 2 °C -2.7 °C 1020.5 hPa Calm   1.6 km/h 71% 0 mm
06:45 2.1 °C -2.7 °C 1020.5 hPa South 1.6 km/h 1.6 km/h 71% 0 mm
06:50 2.1 °C -2.6 °C 1020.5 hPa WSW 1.6 km/h 1.6 km/h 71% 0 mm
06:55 2.1 °C -2.8 °C 1020.5 hPa Calm     70% 0 mm
07:00 2.1 °C -2.8 °C 1020.5 hPa Calm   1.6 km/h 70% 0 mm
07:05 2.1 °C -2.8 °C 1020.5 hPa West 1.6 km/h 1.6 km/h 70% 0 mm
07:10 2.1 °C -2.8 °C 1020.5 hPa SSE 1.6 km/h 3.2 km/h 70% 0 mm
07:15 2.1 °C -2.8 °C 1020.5 hPa Calm   1.6 km/h 70% 0 mm
07:20 2.1 °C -2.8 °C 1020.5 hPa SSW 1.6 km/h 1.6 km/h 70% 0 mm
07:25 2.1 °C -2.8 °C 1020.5 hPa Calm   1.6 km/h 70% 0 mm
07:30 2.1 °C -2.8 °C 1020.5 hPa South 1.6 km/h 1.6 km/h 70% 0 mm
07:35 2.1 °C -3.1 °C 1020.5 hPa Calm   1.6 km/h 69% 0 mm
07:40 2.1 °C -3.1 °C 1020.2 hPa Calm   1.6 km/h 69% 0 mm
07:45 2 °C -3.1 °C 1020.2 hPa South 1.6 km/h 1.6 km/h 69% 0 mm
07:50 2 °C -2.9 °C 1020.2 hPa SSW 1.6 km/h 3.2 km/h 70% 0 mm
07:55 1.9 °C -2.9 °C 1020.2 hPa SSE 1.6 km/h 1.6 km/h 70% 0 mm
08:00 1.9 °C -3 °C 1020.5 hPa West 1.6 km/h 1.6 km/h 70% 0 mm
08:05 1.9 °C -3 °C 1020.2 hPa SSE 1.6 km/h 1.6 km/h 70% 0 mm
08:10 1.9 °C -2.9 °C 1020.5 hPa Calm     70% 0 mm
08:15 2.1 °C -2.8 °C 1020.2 hPa Calm   1.6 km/h 70% 0 mm
08:20 2.1 °C -3.1 °C 1020.2 hPa Calm     69% 0 mm
08:25 2.1 °C -3.1 °C 1020.2 hPa SSE 1.6 km/h 1.6 km/h 69% 0 mm
08:30 2.1 °C -3 °C 1020.5 hPa Calm   1.6 km/h 69% 0 mm
08:35 2.1 °C -3.2 °C 1020.5 hPa SW 1.6 km/h 1.6 km/h 68% 0 mm
08:40 2.1 °C -3.1 °C 1020.9 hPa South 1.6 km/h 3.2 km/h 69% 0 mm
08:45 2.1 °C -3.2 °C 1020.5 hPa Calm   3.2 km/h 68% 0 mm
08:50 2.2 °C -3.1 °C 1020.5 hPa Calm   1.6 km/h 68% 0 mm
08:55 2.2 °C -3.1 °C 1020.5 hPa West 1.6 km/h 1.6 km/h 68% 0 mm
09:00 2.2 °C -3.1 °C 1020.5 hPa SW 1.6 km/h 1.6 km/h 68% 0 mm
09:05 2.2 °C -3.3 °C 1020.5 hPa SW 1.6 km/h 1.6 km/h 67% 0 mm
09:10 2.2 °C -3.3 °C 1020.5 hPa Calm   1.6 km/h 67% 0 mm
09:15 2.2 °C -3.1 °C 1020.5 hPa SSE 1.6 km/h 1.6 km/h 68% 0 mm
09:20 2.3 °C -3.2 °C 1020.5 hPa Calm   1.6 km/h 67% 0 mm
09:25 2.3 °C -3.2 °C 1020.5 hPa South 1.6 km/h 1.6 km/h 67% 0 mm
09:30 2.4 °C -3.1 °C 1020.5 hPa SE 1.6 km/h 1.6 km/h 67% 0 mm
09:36 2.5 °C -3 °C 1020.2 hPa Calm     67% 0 mm
09:40 2.6 °C -3.1 °C 1020.2 hPa SE 1.6 km/h 1.6 km/h 66% 0 mm
09:45 2.6 °C -3.1 °C 1020.2 hPa SSW 1.6 km/h 1.6 km/h 66% 0 mm
09:50 2.8 °C -2.9 °C 1020.2 hPa SSE 3.2 km/h 3.2 km/h 66% 0 mm
09:55 2.8 °C -3.2 °C 1019.9 hPa Calm   3.2 km/h 65% 0 mm
10:00 2.9 °C -2.8 °C 1020.2 hPa Calm   1.6 km/h 66% 0 mm
10:05 3.2 °C -2.8 °C 1019.9 hPa South 1.6 km/h 3.2 km/h 65% 0 mm
10:10 3.4 °C -2.6 °C 1019.9 hPa South 1.6 km/h 1.6 km/h 65% 0 mm
10:15 3.5 °C -2.7 °C 1020.2 hPa Calm   1.6 km/h 64% 0 mm
10:20 3.6 °C -2.6 °C 1019.9 hPa WNW 1.6 km/h 1.6 km/h 64% 0 mm
10:25 3.6 °C -2.8 °C 1019.9 hPa WNW 3.2 km/h 3.2 km/h 63% 0 mm
10:30 3.7 °C -2.7 °C 1019.9 hPa South 1.6 km/h 1.6 km/h 63% 0 mm
10:35 3.8 °C -2.6 °C 1020.2 hPa South 1.6 km/h 3.2 km/h 63% 0 mm
10:40 3.9 °C -2.7 °C 1019.9 hPa SSW 1.6 km/h 1.6 km/h 62% 0 mm
10:45 3.9 °C -2.7 °C 1019.9 hPa Calm   1.6 km/h 62% 0 mm
10:50 3.9 °C -2.7 °C 1019.9 hPa Calm     62% 0 mm
10:55 4.2 °C -2.6 °C 1019.9 hPa Calm   1.6 km/h 61% 0 mm
11:00 4.2 °C -2.8 °C 1019.9 hPa Calm   3.2 km/h 60% 0 mm
11:05 4.3 °C -2.8 °C 1019.9 hPa South 1.6 km/h 1.6 km/h 60% 0 mm
11:10 4.4 °C -2.7 °C 1019.9 hPa South 1.6 km/h 1.6 km/h 60% 0 mm
11:15 4.4 °C -2.9 °C 1019.9 hPa SSW 1.6 km/h 1.6 km/h 59% 0 mm
11:20 4.6 °C -2.5 °C 1019.5 hPa ESE 1.6 km/h 3.2 km/h 60% 0 mm
11:25 4.7 °C -2.6 °C 1019.5 hPa SSW 1.6 km/h 1.6 km/h 59% 0 mm
11:30 4.8 °C -2.7 °C 1019.5 hPa SSE 3.2 km/h 3.2 km/h 58% 0 mm
11:35 4.9 °C -2.4 °C 1019.5 hPa SSW 1.6 km/h 3.2 km/h 59% 0 mm
11:40 5.3 °C -2.3 °C 1019.5 hPa Calm   1.6 km/h 58% 0 mm
11:45 5.3 °C -2.3 °C 1019.5 hPa SSE 3.2 km/h 3.2 km/h 58% 0 mm
11:50 5.5 °C -1.9 °C 1019.5 hPa SSE 3.2 km/h 3.2 km/h 59% 0.25 mm
11:55 5.7 °C -1.7 °C 1019.5 hPa South 3.2 km/h 3.2 km/h 59% 0.25 mm
12:00 5.5 °C -2.3 °C 1019.5 hPa SSE 1.6 km/h 1.6 km/h 57% 0.25 mm
12:05 5.9 °C -1.7 °C 1019.5 hPa Calm   1.6 km/h 58% 0.25 mm
12:10 5.1 °C -2.1 °C 1019.5 hPa Calm   4.8 km/h 60% 0.25 mm
12:15 4.6 °C -2.3 °C 1019.5 hPa South 3.2 km/h 4.8 km/h 61% 0.25 mm
12:20 5.1 °C -2.1 °C 1019.2 hPa Calm   3.2 km/h 60% 0.25 mm
12:25 5.7 °C -1.9 °C 1018.8 hPa SW 3.2 km/h 3.2 km/h 58% 0.25 mm
12:30 5.1 °C -1.8 °C 1018.8 hPa Calm   1.6 km/h 61% 0.25 mm
12:35 5.6 °C -1.8 °C 1018.8 hPa Calm     59% 0.25 mm
12:40 5.1 °C -2 °C 1018.5 hPa South 1.6 km/h 3.2 km/h 60% 0.25 mm
12:45 5.1 °C -1.6 °C 1018.5 hPa ESE 1.6 km/h 1.6 km/h 62% 0.25 mm
12:50 5 °C -1.7 °C 1018.2 hPa NNE 1.6 km/h 1.6 km/h 62% 0 mm
12:55 4.8 °C -1.9 °C 1017.8 hPa NNE 1.6 km/h 1.6 km/h 62% 0 mm
13:00 4.6 °C -2.1 °C 1017.5 hPa ENE 1.6 km/h 3.2 km/h 62% 0 mm
13:05 4.5 °C -1.9 °C 1017.5 hPa South 1.6 km/h 1.6 km/h 63% 0 mm
13:10 4.6 °C -1.9 °C 1017.8 hPa SW 1.6 km/h 3.2 km/h 63% 0 mm
13:15 4.4 °C -2.2 °C 1017.5 hPa WNW 3.2 km/h 3.2 km/h 62% 0 mm
13:20 4.4 °C -2 °C 1017.5 hPa South 1.6 km/h 3.2 km/h 63% 0 mm
13:25 4.3 °C -2.1 °C 1017.5 hPa Calm     63% 0 mm
13:30 4.2 °C -2 °C 1017.5 hPa Calm   3.2 km/h 64% 0 mm
13:35 4.3 °C -1.9 °C 1017.2 hPa West 1.6 km/h 1.6 km/h 64% 0 mm
13:40 4.6 °C -1.8 °C 1017.2 hPa Calm   1.6 km/h 63% 0 mm
13:45 4.9 °C -1.5 °C 1017.2 hPa Calm   1.6 km/h 63% 0 mm
13:50 5.1 °C -1.6 °C 1017.2 hPa South 1.6 km/h 1.6 km/h 62% 0 mm
13:55 4.9 °C -1.5 °C 1017.2 hPa SSE 1.6 km/h 3.2 km/h 63% 0 mm
14:00 4.8 °C -1.7 °C 1017.2 hPa Calm   1.6 km/h 63% 0 mm
14:05 4.4 °C -1.8 °C 1017.2 hPa South 3.2 km/h 3.2 km/h 64% 0 mm
14:10 4.1 °C -1.9 °C 1017.2 hPa Calm     65% 0 mm
14:15 3.9 °C -1.9 °C 1017.2 hPa West 1.6 km/h 1.6 km/h 66% 0 mm
14:20 3.8 °C -1.7 °C 1016.8 hPa Calm   1.6 km/h 67% 0 mm
14:25 3.8 °C -1.6 °C 1017.2 hPa NW 1.6 km/h 3.2 km/h 68% 0 mm
14:30 3.8 °C -1.5 °C 1016.8 hPa NW 3.2 km/h 4.8 km/h 68% 0 mm
14:35 3.8 °C -1.5 °C 1017.2 hPa South 1.6 km/h 1.6 km/h 68% 0 mm
14:40 3.9 °C -1.5 °C 1016.8 hPa Calm   1.6 km/h 68% 0 mm
14:45 3.8 °C -1.6 °C 1016.8 hPa Calm   1.6 km/h 68% 0 mm
14:50 3.9 °C -1.3 °C 1016.8 hPa Calm   1.6 km/h 69% 0 mm
14:55 4.1 °C -1.3 °C 1016.8 hPa Calm   3.2 km/h 68% 0 mm
15:00 4.3 °C -1.3 °C 1016.5 hPa Calm   1.6 km/h 67% 0 mm
15:05 4.7 °C -0.9 °C 1016.8 hPa Calm   1.6 km/h 67% 0 mm
15:10 4.5 °C -1.1 °C 1016.5 hPa Calm   1.6 km/h 67% 0 mm
15:15 4.6 °C -1 °C 1016.5 hPa SSE 3.2 km/h 3.2 km/h 67% 0 mm
15:21 4.8 °C -1.1 °C 1016.1 hPa SSW 1.6 km/h 3.2 km/h 66% 0 mm
15:25 4.6 °C -1 °C 1016.1 hPa WSW 1.6 km/h 3.2 km/h 67% 0 mm
15:30 4.5 °C -1.1 °C 1016.5 hPa SSW 4.8 km/h 4.8 km/h 67% 0 mm
15:35 4.6 °C -1.1 °C 1016.5 hPa SSW 3.2 km/h 3.2 km/h 67% 0 mm
15:40 4.5 °C -1.1 °C 1016.5 hPa Calm   1.6 km/h 67% 0 mm
15:45 4.4 °C -0.9 °C 1016.1 hPa SSE 1.6 km/h 1.6 km/h 68% 0 mm
15:50 4.3 °C -1.1 °C 1016.1 hPa WNW 1.6 km/h 3.2 km/h 68% 0 mm
15:55 4 °C -1.2 °C 1016.5 hPa NW 1.6 km/h 3.2 km/h 69% 0 mm
16:00 3.9 °C -1.1 °C 1016.8 hPa SSE 1.6 km/h 3.2 km/h 70% 0 mm
16:05 3.9 °C -1.1 °C 1016.5 hPa Calm   3.2 km/h 70% 0 mm
High Park Village Arhives